Time,TemperatureF,DewpointF,PressureIn,WindDirection,WindDirectionDegrees,WindSpeedMPH,WindSpeedGustMPH,Humidity,HourlyPrecipIn,Conditions,Clouds,dailyrainin,SoftwareType,DateUTC
2013-04-04 00:02:00,50.0,47.0,30.17,NNW,342,2.0,0.0,91,-99.99,,,-99.99,,2013-04-04 05:02:00,
2013-04-04 00:13:00,50.0,47.0,30.17,NNW,342,2.0,0.0,91,-99.99,,,-99.99,,2013-04-04 05:13:00,
2013-04-04 00:23:00,50.0,47.0,30.17,WNW,282,7.0,0.0,91,-99.99,,,-99.99,,2013-04-04 05:23:00,
2013-04-04 00:32:00,50.0,47.0,30.17,West,265,6.0,0.0,91,-99.99,,,-99.99,,2013-04-04 05:32:00,
2013-04-04 00:42:00,50.0,47.0,30.17,West,265,6.0,0.0,91,-99.99,,,-99.99,,2013-04-04 05:42:00,
2013-04-04 00:53:00,50.0,47.0,30.17,NW,323,3.0,0.0,91,-99.99,,,-99.99,,2013-04-04 05:53:00,
2013-04-04 01:02:00,50.0,47.0,30.17,NW,311,2.0,0.0,90,-99.99,,,-99.99,,2013-04-04 06:02:00,
2013-04-04 01:12:00,50.0,47.0,30.17,NW,311,2.0,0.0,90,-99.99,,,-99.99,,2013-04-04 06:12:00,
2013-04-04 01:22:00,50.0,47.0,30.17,WNW,287,4.0,0.0,90,-99.99,,,-99.99,,2013-04-04 06:22:00,
2013-04-04 01:32:00,50.0,47.0,30.17,NW,319,3.0,0.0,90,-99.99,,,-99.99,,2013-04-04 06:32:00,
2013-04-04 01:42:00,50.0,47.0,30.17,NW,319,3.0,0.0,90,-99.99,,,-99.99,,2013-04-04 06:42:00,
2013-04-04 01:53:00,50.0,47.0,30.16,WNW,284,7.0,0.0,89,-99.99,,,-99.99,,2013-04-04 06:53:00,
2013-04-04 02:02:00,50.0,47.0,30.16,WNW,294,1.0,0.0,89,-99.99,,,-99.99,,2013-04-04 07:02:00,
2013-04-04 02:12:00,50.0,47.0,30.16,WNW,294,1.0,0.0,89,-99.99,,,-99.99,,2013-04-04 07:12:00,
2013-04-04 02:22:00,50.0,47.0,30.16,WNW,286,6.0,0.0,89,-99.99,,,-99.99,,2013-04-04 07:22:00,
2013-04-04 02:32:00,50.0,47.0,30.16,WNW,283,5.0,0.0,90,-99.99,,,-99.99,,2013-04-04 07:32:00,
2013-04-04 02:43:00,50.0,47.0,30.16,WNW,283,5.0,0.0,90,-99.99,,,-99.99,,2013-04-04 07:43:00,
2013-04-04 02:52:00,50.0,47.0,30.16,NNW,332,3.0,0.0,90,-99.99,,,-99.99,,2013-04-04 07:52:00,
2013-04-04 03:02:00,50.0,47.0,30.16,WNW,302,5.0,0.0,90,-99.99,,,-99.99,,2013-04-04 08:02:00,
2013-04-04 03:12:00,50.0,47.0,30.16,WNW,302,5.0,0.0,90,-99.99,,,-99.99,,2013-04-04 08:12:00,
2013-04-04 03:22:00,50.0,47.0,30.15,NW,311,5.0,0.0,89,-99.99,,,-99.99,,2013-04-04 08:22:00,
2013-04-04 03:32:00,50.0,47.0,30.15,WNW,293,5.0,0.0,89,-99.99,,,-99.99,,2013-04-04 08:32:00,
2013-04-04 03:43:00,50.0,47.0,30.15,WNW,293,5.0,0.0,89,-99.99,,,-99.99,,2013-04-04 08:43:00,
2013-04-04 03:52:00,50.0,47.0,30.14,WNW,284,2.0,0.0,89,-99.99,,,-99.99,,2013-04-04 08:52:00,
2013-04-04 04:02:00,50.0,47.0,30.14,West,276,5.0,0.0,89,-99.99,,,-99.99,,2013-04-04 09:02:00,
2013-04-04 04:12:00,50.0,47.0,30.14,West,276,5.0,0.0,89,-99.99,,,-99.99,,2013-04-04 09:12:00,
2013-04-04 04:22:00,49.0,46.0,30.14,WNW,286,4.0,0.0,88,-99.99,,,-99.99,,2013-04-04 09:22:00,
2013-04-04 04:33:00,49.0,46.0,30.14,WNW,285,2.0,0.0,88,-99.99,,,-99.99,,2013-04-04 09:33:00,
2013-04-04 04:43:00,49.0,46.0,30.14,WNW,285,2.0,0.0,88,-99.99,,,-99.99,,2013-04-04 09:43:00,
2013-04-04 04:54:00,49.0,46.0,30.14,NW,326,6.0,0.0,88,-99.99,,,-99.99,,2013-04-04 09:54:00,
2013-04-04 05:04:00,49.0,46.0,30.14,WNW,290,3.0,0.0,88,-99.99,,,-99.99,,2013-04-04 10:04:00,
2013-04-04 05:12:00,49.0,46.0,30.14,WNW,290,3.0,0.0,88,-99.99,,,-99.99,,2013-04-04 10:12:00,
2013-04-04 05:23:00,49.0,46.0,30.14,West,281,3.0,0.0,88,-99.99,,,-99.99,,2013-04-04 10:23:00,
2013-04-04 05:33:00,49.0,45.0,30.15,WSW,256,2.0,0.0,87,-99.99,,,-99.99,,2013-04-04 10:33:00,
2013-04-04 05:42:00,49.0,45.0,30.15,WSW,256,2.0,0.0,87,-99.99,,,-99.99,,2013-04-04 10:42:00,
2013-04-04 05:54:00,49.0,45.0,30.15,SE,138,4.0,0.0,87,-99.99,,,-99.99,,2013-04-04 10:54:00,
2013-04-04 06:02:00,49.0,46.0,30.15,NW,325,3.0,0.0,88,-99.99,,,-99.99,,2013-04-04 11:02:00,
2013-04-04 06:12:00,49.0,46.0,30.15,NW,325,3.0,0.0,88,-99.99,,,-99.99,,2013-04-04 11:12:00,
2013-04-04 06:22:00,49.0,45.0,30.16,NW,309,1.0,0.0,87,-99.99,,,-99.99,,2013-04-04 11:22:00,
2013-04-04 06:32:00,49.0,45.0,30.16,WSW,256,3.0,0.0,87,-99.99,,,-99.99,,2013-04-04 11:32:00,
2013-04-04 06:42:00,49.0,45.0,30.16,WSW,256,3.0,0.0,87,-99.99,,,-99.99,,2013-04-04 11:42:00,
2013-04-04 06:54:00,49.0,45.0,30.17,NW,321,5.0,0.0,85,-99.99,,,-99.99,,2013-04-04 11:54:00,
2013-04-04 07:02:00,49.0,45.0,30.17,NNW,342,3.0,0.0,86,-99.99,,,-99.99,,2013-04-04 12:02:00,
2013-04-04 07:12:00,49.0,45.0,30.17,NNW,342,3.0,0.0,86,-99.99,,,-99.99,,2013-04-04 12:12:00,
2013-04-04 07:22:00,49.0,45.0,30.18,NW,311,3.0,0.0,86,-99.99,,,-99.99,,2013-04-04 12:22:00,
2013-04-04 07:32:00,49.0,45.0,30.18,West,263,3.0,0.0,87,-99.99,,,-99.99,,2013-04-04 12:32:00,
2013-04-04 07:43:00,49.0,45.0,30.18,West,263,3.0,0.0,87,-99.99,,,-99.99,,2013-04-04 12:43:00,
2013-04-04 07:52:00,49.0,45.0,30.20,WNW,302,2.0,0.0,86,-99.99,,,-99.99,,2013-04-04 12:52:00,
2013-04-04 08:02:00,49.0,45.0,30.20,WSW,252,5.0,0.0,86,-99.99,,,-99.99,,2013-04-04 13:02:00,
2013-04-04 08:12:00,49.0,45.0,30.20,WSW,252,5.0,0.0,86,-99.99,,,-99.99,,2013-04-04 13:12:00,
2013-04-04 08:22:00,49.0,45.0,30.21,West,262,4.0,0.0,85,-99.99,,,-99.99,,2013-04-04 13:22:00,
2013-04-04 08:32:00,49.0,45.0,30.21,WSW,257,5.0,0.0,85,-99.99,,,-99.99,,2013-04-04 13:32:00,
2013-04-04 08:42:00,49.0,45.0,30.21,WSW,257,5.0,0.0,85,-99.99,,,-99.99,,2013-04-04 13:42:00,
2013-04-04 08:53:00,49.0,43.0,30.22,West,267,4.0,0.0,80,-99.99,,,-99.99,,2013-04-04 13:53:00,
2013-04-04 09:03:00,49.0,43.0,30.22,West,272,3.0,0.0,80,-99.99,,,-99.99,,2013-04-04 14:03:00,
2013-04-04 09:12:00,49.0,43.0,30.22,West,272,3.0,0.0,80,-99.99,,,-99.99,,2013-04-04 14:12:00,
2013-04-04 09:22:00,49.0,43.0,30.23,WNW,285,5.0,0.0,79,-99.99,,,-99.99,,2013-04-04 14:22:00,
2013-04-04 09:32:00,49.0,43.0,30.23,West,281,4.0,0.0,79,-99.99,,,-99.99,,2013-04-04 14:32:00,
2013-04-04 09:42:00,49.0,43.0,30.23,West,281,4.0,0.0,79,-99.99,,,-99.99,,2013-04-04 14:42:00,
2013-04-04 09:53:00,49.0,42.0,30.24,WNW,294,5.0,15.0,77,-99.99,,,-99.99,,2013-04-04 14:53:00,
2013-04-04 10:02:00,48.0,41.0,30.25,WSW,248,5.0,13.0,76,-99.99,,,-99.99,,2013-04-04 15:02:00,
2013-04-04 10:12:00,48.0,41.0,30.25,WSW,248,5.0,13.0,76,-99.99,,,-99.99,,2013-04-04 15:12:00,
2013-04-04 10:23:00,49.0,41.0,30.25,NW,315,10.0,0.0,75,-99.99,,,-99.99,,2013-04-04 15:23:00,
2013-04-04 10:33:00,49.0,42.0,30.25,WNW,298,2.0,13.0,76,-99.99,,,-99.99,,2013-04-04 15:33:00,
2013-04-04 10:43:00,49.0,42.0,30.25,WNW,298,2.0,13.0,76,-99.99,,,-99.99,,2013-04-04 15:43:00,
2013-04-04 10:53:00,49.0,41.0,30.25,NNW,346,5.0,0.0,75,-99.99,,,-99.99,,2013-04-04 15:53:00,
2013-04-04 11:03:00,49.0,41.0,30.25,WSW,252,5.0,0.0,75,-99.99,,,-99.99,,2013-04-04 16:03:00,
2013-04-04 11:12:00,49.0,41.0,30.25,WSW,252,5.0,0.0,75,-99.99,,,-99.99,,2013-04-04 16:12:00,
2013-04-04 11:24:00,50.0,42.0,30.25,NW,305,9.0,0.0,74,-99.99,,,-99.99,,2013-04-04 16:24:00,
2013-04-04 11:32:00,50.0,42.0,30.26,NW,310,5.0,15.0,73,-99.99,,,-99.99,,2013-04-04 16:32:00,
2013-04-04 11:42:00,50.0,42.0,30.26,NW,310,5.0,15.0,73,-99.99,,,-99.99,,2013-04-04 16:42:00,
2013-04-04 11:53:00,50.0,42.0,30.26,NW,322,7.0,0.0,74,-99.99,,,-99.99,,2013-04-04 16:53:00,
2013-04-04 12:03:00,50.0,42.0,30.27,West,272,6.0,0.0,74,-99.99,,,-99.99,,2013-04-04 17:03:00,
2013-04-04 12:13:00,50.0,42.0,30.27,West,272,6.0,0.0,74,-99.99,,,-99.99,,2013-04-04 17:13:00,
2013-04-04 12:22:00,50.0,42.0,30.27,NW,324,6.0,0.0,74,-99.99,,,-99.99,,2013-04-04 17:22:00,
2013-04-04 12:33:00,52.0,43.0,30.26,NW,304,7.0,12.0,72,-99.99,,,-99.99,,2013-04-04 17:33:00,
2013-04-04 12:42:00,52.0,43.0,30.26,NW,304,7.0,12.0,72,-99.99,,,-99.99,,2013-04-04 17:42:00,
2013-04-04 12:52:00,52.0,43.0,30.26,West,273,5.0,0.0,70,-99.99,,,-99.99,,2013-04-04 17:52:00,
2013-04-04 13:02:00,52.0,43.0,30.25,WNW,282,9.0,16.0,70,-99.99,,,-99.99,,2013-04-04 18:02:00,
2013-04-04 13:12:00,52.0,43.0,30.25,WNW,282,9.0,16.0,70,-99.99,,,-99.99,,2013-04-04 18:12:00,
2013-04-04 13:23:00,53.0,43.0,30.24,West,265,9.0,13.0,69,-99.99,,,-99.99,,2013-04-04 18:23:00,
2013-04-04 13:32:00,53.0,42.0,30.24,WNW,301,5.0,0.0,67,-99.99,,,-99.99,,2013-04-04 18:32:00,
2013-04-04 13:43:00,53.0,42.0,30.24,WNW,301,5.0,0.0,67,-99.99,,,-99.99,,2013-04-04 18:43:00,
2013-04-04 13:52:00,53.0,42.0,30.23,WNW,284,4.0,16.0,67,-99.99,,,-99.99,,2013-04-04 18:52:00,
2013-04-04 14:02:00,54.0,43.0,30.22,West,273,6.0,0.0,66,-99.99,,,-99.99,,2013-04-04 19:02:00,
2013-04-04 14:12:00,54.0,43.0,30.22,West,273,6.0,0.0,66,-99.99,,,-99.99,,2013-04-04 19:12:00,
2013-04-04 14:22:00,55.0,43.0,30.21,West,267,5.0,15.0,65,-99.99,,,-99.99,,2013-04-04 19:22:00,
2013-04-04 14:32:00,55.0,43.0,30.21,NW,324,5.0,0.0,65,-99.99,,,-99.99,,2013-04-04 19:32:00,
2013-04-04 14:42:00,55.0,43.0,30.21,NW,324,5.0,0.0,65,-99.99,,,-99.99,,2013-04-04 19:42:00,
2013-04-04 14:52:00,56.0,44.0,30.20,WNW,290,9.0,14.0,63,-99.99,,,-99.99,,2013-04-04 19:52:00,
2013-04-04 15:03:00,56.0,44.0,30.19,NNW,348,5.0,0.0,64,-99.99,,,-99.99,,2013-04-04 20:03:00,
2013-04-04 15:12:00,56.0,44.0,30.19,NNW,348,5.0,0.0,64,-99.99,,,-99.99,,2013-04-04 20:12:00,
2013-04-04 15:22:00,58.0,44.0,30.18,WNW,286,7.0,0.0,60,-99.99,,,-99.99,,2013-04-04 20:22:00,
2013-04-04 15:32:00,58.0,44.0,30.18,West,275,3.0,0.0,60,-99.99,,,-99.99,,2013-04-04 20:32:00,
2013-04-04 15:42:00,58.0,44.0,30.18,West,275,3.0,0.0,60,-99.99,,,-99.99,,2013-04-04 20:42:00,
2013-04-04 15:53:00,59.0,45.0,30.17,NNW,344,6.0,0.0,60,-99.99,,,-99.99,,2013-04-04 20:53:00,
2013-04-04 16:02:00,59.0,46.0,30.17,WNW,282,9.0,0.0,61,-99.99,,,-99.99,,2013-04-04 21:02:00,
2013-04-04 16:12:00,59.0,46.0,30.17,WNW,282,9.0,0.0,61,-99.99,,,-99.99,,2013-04-04 21:12:00,
2013-04-04 16:22:00,58.0,44.0,30.16,NW,304,6.0,15.0,59,-99.99,,,-99.99,,2013-04-04 21:22:00,
2013-04-04 16:32:00,59.0,45.0,30.16,NNW,327,10.0,14.0,60,-99.99,,,-99.99,,2013-04-04 21:32:00,
2013-04-04 16:43:00,59.0,45.0,30.16,NNW,327,10.0,14.0,60,-99.99,,,-99.99,,2013-04-04 21:43:00,
2013-04-04 16:53:00,60.0,45.0,30.16,NW,311,3.0,0.0,57,-99.99,,,-99.99,,2013-04-04 21:53:00,
2013-04-04 17:03:00,60.0,45.0,30.15,NW,319,9.0,0.0,58,-99.99,,,-99.99,,2013-04-04 22:03:00,
2013-04-04 17:12:00,60.0,45.0,30.15,NW,319,9.0,0.0,58,-99.99,,,-99.99,,2013-04-04 22:12:00,
2013-04-04 17:23:00,60.0,46.0,30.14,North,355,9.0,0.0,59,-99.99,,,-99.99,,2013-04-04 22:23:00,
2013-04-04 17:33:00,60.0,45.0,30.15,NW,323,8.0,0.0,57,-99.99,,,-99.99,,2013-04-04 22:33:00,
2013-04-04 17:42:00,60.0,45.0,30.15,NW,323,8.0,0.0,57,-99.99,,,-99.99,,2013-04-04 22:42:00,
2013-04-04 17:53:00,61.0,46.0,30.15,NW,307,5.0,13.0,58,-99.99,,,-99.99,,2013-04-04 22:53:00,
2013-04-04 18:02:00,61.0,46.0,30.15,North,9,6.0,0.0,58,-99.99,,,-99.99,,2013-04-04 23:02:00,
2013-04-04 18:12:00,61.0,46.0,30.15,North,9,6.0,0.0,58,-99.99,,,-99.99,,2013-04-04 23:12:00,
2013-04-04 18:22:00,60.0,45.0,30.15,WNW,302,4.0,0.0,58,-99.99,,,-99.99,,2013-04-04 23:22:00,
2013-04-04 18:32:00,60.0,45.0,30.15,WNW,300,4.0,0.0,58,-99.99,,,-99.99,,2013-04-04 23:32:00,
2013-04-04 18:42:00,60.0,45.0,30.15,WNW,300,4.0,0.0,58,-99.99,,,-99.99,,2013-04-04 23:42:00,
2013-04-04 18:52:00,60.0,46.0,30.15,NW,315,6.0,0.0,59,-99.99,,,-99.99,,2013-04-04 23:52:00,
2013-04-04 19:02:00,60.0,46.0,30.15,NW,312,8.0,0.0,60,-99.99,,,-99.99,,2013-04-05 00:02:00,
2013-04-04 19:12:00,60.0,46.0,30.15,NW,312,8.0,0.0,60,-99.99,,,-99.99,,2013-04-05 00:12:00,
2013-04-04 19:22:00,59.0,46.0,30.16,North,351,5.0,0.0,61,-99.99,,,-99.99,,2013-04-05 00:22:00,
2013-04-04 19:32:00,58.0,45.0,30.16,NE,39,2.0,0.0,62,-99.99,,,-99.99,,2013-04-05 00:32:00,
2013-04-04 19:42:00,58.0,45.0,30.16,NE,39,2.0,0.0,62,-99.99,,,-99.99,,2013-04-05 00:42:00,
2013-04-04 19:52:00,58.0,46.0,30.16,NW,317,5.0,0.0,64,-99.99,,,-99.99,,2013-04-05 00:52:00,
2013-04-04 20:02:00,57.0,45.0,30.16,NW,315,1.0,0.0,65,-99.99,,,-99.99,,2013-04-05 01:02:00,
2013-04-04 20:12:00,57.0,45.0,30.16,NW,315,1.0,0.0,65,-99.99,,,-99.99,,2013-04-05 01:12:00,
2013-04-04 20:22:00,56.0,45.0,30.17,NNW,348,4.0,0.0,67,-99.99,,,-99.99,,2013-04-05 01:22:00,
2013-04-04 20:32:00,56.0,46.0,30.17,NNE,17,3.0,0.0,68,-99.99,,,-99.99,,2013-04-05 01:32:00,
2013-04-04 20:42:00,56.0,46.0,30.17,NNE,17,3.0,0.0,68,-99.99,,,-99.99,,2013-04-05 01:42:00,
2013-04-04 20:53:00,55.0,45.0,30.18,NNW,333,2.0,0.0,69,-99.99,,,-99.99,,2013-04-05 01:53:00,
2013-04-04 21:03:00,55.0,45.0,30.18,NNW,327,2.0,0.0,69,-99.99,,,-99.99,,2013-04-05 02:03:00,
2013-04-04 21:12:00,55.0,45.0,30.18,NNW,327,2.0,0.0,69,-99.99,,,-99.99,,2013-04-05 02:12:00,
2013-04-04 21:22:00,54.0,44.0,30.19,North,355,1.0,0.0,70,-99.99,,,-99.99,,2013-04-05 02:22:00,
2013-04-04 21:32:00,54.0,45.0,30.19,ENE,67,0.0,0.0,72,-99.99,,,-99.99,,2013-04-05 02:32:00,
2013-04-04 21:42:00,54.0,45.0,30.19,ENE,67,0.0,0.0,72,-99.99,,,-99.99,,2013-04-05 02:42:00,
2013-04-04 21:52:00,52.0,45.0,30.20,NE,41,0.0,0.0,76,-99.99,,,-99.99,,2013-04-05 02:52:00,
2013-04-04 22:02:00,52.0,45.0,30.21,North,355,0.0,0.0,76,-99.99,,,-99.99,,2013-04-05 03:02:00,
2013-04-04 22:12:00,52.0,45.0,30.21,North,355,0.0,0.0,76,-99.99,,,-99.99,,2013-04-05 03:12:00,
2013-04-04 22:22:00,51.0,44.0,30.22,NNE,17,1.0,0.0,77,-99.99,,,-99.99,,2013-04-05 03:22:00,
2013-04-04 22:32:00,51.0,44.0,30.22,North,9,0.0,0.0,77,-99.99,,,-99.99,,2013-04-05 03:32:00,
2013-04-04 22:43:00,51.0,44.0,30.22,North,9,0.0,0.0,77,-99.99,,,-99.99,,2013-04-05 03:43:00,
2013-04-04 22:54:00,51.0,44.0,30.23,North,360,0.0,0.0,77,-99.99,,,-99.99,,2013-04-05 03:54:00,
2013-04-04 23:02:00,51.0,44.0,30.23,NNE,13,2.0,0.0,76,-99.99,,,-99.99,,2013-04-05 04:02:00,
2013-04-04 23:12:00,51.0,44.0,30.23,NNE,13,2.0,0.0,76,-99.99,,,-99.99,,2013-04-05 04:12:00,
2013-04-04 23:22:00,50.0,43.0,30.24,North,5,2.0,0.0,78,-99.99,,,-99.99,,2013-04-05 04:22:00,
2013-04-04 23:32:00,50.0,43.0,30.24,NE,44,2.0,0.0,78,-99.99,,,-99.99,,2013-04-05 04:32:00,
2013-04-04 23:42:00,50.0,43.0,30.24,NE,44,2.0,0.0,78,-99.99,,,-99.99,,2013-04-05 04:42:00,
2013-04-04 23:52:00,50.0,43.0,30.24,NNW,334,7.0,0.0,78,-99.99,,,-99.99,,2013-04-05 04:52:00,